Location: Chillicothe
(39.7950°N, 93.5520°W)
Time: 03:53:19
(UTC-06:00)

Vanguard 3 - Pass Details

Date: 24 October 2019
Orbit: 508 x 3263 km, 33.3° (Epoch: 17 November)

Event Time Altitude Azimuth Distance (km) Brightness Sun altitude
Rises 21:46:32 0° 217° (SW) 4,209 11.0 -39.5°
Enters shadow 21:49:01 - 209° (SSW) 3,367 10.4 -39.9°
Reaches altitude 10° 21:51:08 10° 198° (SSW) 2,709 - -40.3°
Maximum altitude 21:54:35 15° 163° (SSE) 1,989 - -40.9°
Drops below altitude 10° 21:57:22 10° 127° (SE) 2,083 - -41.4°
Sets 22:00:11 0° 102° (ESE) 2,777 - -41.9°
